ITT1033 LIQB-LIKO

Flight info

Callsign ITT1033
Flight time 0h 43m
Altitude 8000
Route GAVRA
Aircraft C172/L-SFG/C

Departure

Time 2026-04-27 13:54
Airport Arezzo Molin Blanco Airfield (LIQB)

Arrival

Time 2026-04-27 14:37
Airport Guglielmo Zamboni Airfield (LIKO)
Time Latitude Longitude Altitude Speed Heading
2026-04-27 13:48 43.45863 11.84620 830 ft 0 kts 31°
2026-04-27 13:49 43.45863 11.84621 830 ft 0 kts 31°
2026-04-27 13:49 43.45879 11.84600 831 ft 7 kts 301°
2026-04-27 13:49 43.45850 11.84560 831 ft 7 kts 216°
2026-04-27 13:50 43.45808 11.84526 831 ft 8 kts 210°
2026-04-27 13:50 43.45746 11.84478 833 ft 11 kts 213°
2026-04-27 13:50 43.45675 11.84439 835 ft 12 kts 178°
2026-04-27 13:50 43.45608 11.84533 835 ft 17 kts 119°
2026-04-27 13:51 43.45533 11.84694 834 ft 23 kts 119°
2026-04-27 13:51 43.45448 11.84898 834 ft 27 kts 123°
2026-04-27 13:51 43.45382 11.85107 837 ft 14 kts 74°
2026-04-27 13:51 43.45388 11.85059 836 ft 13 kts 300°
2026-04-27 13:52 43.45395 11.85042 836 ft 0 kts 301°
2026-04-27 13:52 43.45455 11.84896 834 ft 40 kts 299°
2026-04-27 13:52 43.45655 11.84422 878 ft 65 kts 299°
2026-04-27 13:53 43.46496 11.84286 1036 ft 90 kts 15°
2026-04-27 13:53 43.47082 11.84288 1233 ft 86 kts
2026-04-27 13:53 43.47688 11.84591 1389 ft 95 kts 29°
2026-04-27 13:54 43.48239 11.85140 1564 ft 100 kts 33°
2026-04-27 13:54 43.48881 11.85433 1739 ft 99 kts 353°
2026-04-27 13:54 43.49567 11.85362 1908 ft 97 kts 346°
2026-04-27 13:54 43.50269 11.85197 1879 ft 110 kts 343°
2026-04-27 13:55 43.51013 11.84970 1938 ft 110 kts 345°
2026-04-27 13:55 43.51770 11.84765 1976 ft 109 kts 345°
2026-04-27 13:55 43.52497 11.84585 2072 ft 104 kts 346°
2026-04-27 13:55 43.53175 11.84452 2221 ft 97 kts 359°
2026-04-27 13:56 43.53849 11.84590 2358 ft 97 kts
2026-04-27 13:56 43.54354 11.85071 2436 ft 78 kts 30°
2026-04-27 13:56 43.54894 11.85128 2505 ft 87 kts
2026-04-27 13:56 43.55550 11.85255 2637 ft 103 kts 356°
2026-04-27 13:57 43.56303 11.85431 2731 ft 117 kts 20°
2026-04-27 13:57 43.57036 11.85974 2790 ft 119 kts 22°
2026-04-27 13:57 43.57785 11.86473 2853 ft 123 kts 20°
2026-04-27 13:57 43.58553 11.86980 2891 ft 122 kts 22°
2026-04-27 13:58 43.59349 11.87476 2980 ft 127 kts 13°
2026-04-27 13:58 43.60188 11.87522 3059 ft 117 kts 350°
2026-04-27 13:58 43.60991 11.87405 3165 ft 117 kts 349°
2026-04-27 13:58 43.61758 11.87181 3253 ft 109 kts 330°
2026-04-27 13:59 43.62424 11.86711 3336 ft 105 kts 331°
2026-04-27 13:59 43.63066 11.86269 3441 ft 102 kts 332°
2026-04-27 13:59 43.63694 11.85862 3524 ft 98 kts 330°
2026-04-27 13:59 43.64294 11.85443 3620 ft 97 kts 332°
2026-04-27 14:00 43.64890 11.85029 3728 ft 98 kts 330°
2026-04-27 14:00 43.65500 11.84633 3822 ft 96 kts 331°
2026-04-27 14:00 43.66092 11.84211 3914 ft 96 kts 328°
2026-04-27 14:00 43.66693 11.83797 4022 ft 98 kts 332°
2026-04-27 14:01 43.67314 11.83360 4140 ft 104 kts 329°
2026-04-27 14:01 43.67971 11.82879 4250 ft 109 kts 329°
2026-04-27 14:01 43.68645 11.82391 4338 ft 108 kts 331°
2026-04-27 14:01 43.69305 11.81929 4450 ft 105 kts 330°
2026-04-27 14:02 43.69955 11.81468 4547 ft 105 kts 328°
2026-04-27 14:02 43.70613 11.81026 4643 ft 105 kts 330°
2026-04-27 14:02 43.71275 11.80620 4734 ft 104 kts 341°
2026-04-27 14:02 43.71983 11.80428 4836 ft 104 kts 346°
2026-04-27 14:03 43.72696 11.80293 4915 ft 106 kts
2026-04-27 14:03 43.73363 11.80705 5022 ft 106 kts 21°
2026-04-27 14:03 43.74059 11.81163 5032 ft 116 kts 33°
2026-04-27 14:03 43.74540 11.82098 5029 ft 122 kts 57°
2026-04-27 14:04 43.74986 11.83098 5033 ft 125 kts 58°
2026-04-27 14:04 43.75439 11.84116 5033 ft 124 kts 56°
2026-04-27 14:04 43.75935 11.85073 5018 ft 122 kts 33°
2026-04-27 14:04 43.76732 11.85220 5012 ft 117 kts 346°
2026-04-27 14:05 43.77516 11.85033 5027 ft 115 kts 348°
2026-04-27 14:05 43.78312 11.84880 5029 ft 116 kts 351°
2026-04-27 14:05 43.79124 11.84744 5034 ft 120 kts 350°
2026-04-27 14:05 43.79959 11.84615 5024 ft 121 kts 353°
2026-04-27 14:06 43.80788 11.84488 5032 ft 121 kts 351°
2026-04-27 14:06 43.81632 11.84366 5021 ft 121 kts 353°
2026-04-27 14:06 43.82475 11.84240 5019 ft 122 kts 352°
2026-04-27 14:06 43.83310 11.84113 5021 ft 121 kts 351°
2026-04-27 14:07 43.84148 11.83989 5015 ft 121 kts 352°
2026-04-27 14:07 43.84982 11.83865 5022 ft 120 kts 351°
2026-04-27 14:07 43.85815 11.83757 5019 ft 120 kts 358°
2026-04-27 14:07 43.86599 11.84125 5026 ft 121 kts 30°
2026-04-27 14:08 43.87316 11.84717 5027 ft 119 kts 29°
2026-04-27 14:08 43.88033 11.85307 5021 ft 120 kts 30°
2026-04-27 14:08 43.88747 11.85896 5016 ft 119 kts 28°
2026-04-27 14:08 43.89460 11.86483 5017 ft 119 kts 30°
2026-04-27 14:09 43.90172 11.87070 5012 ft 119 kts 30°
2026-04-27 14:09 43.90884 11.87656 5011 ft 120 kts 29°
2026-04-27 14:09 43.91602 11.88252 5021 ft 123 kts 30°
2026-04-27 14:09 43.92335 11.88853 5006 ft 120 kts 29°
2026-04-27 14:10 43.93054 11.89445 5004 ft 121 kts 31°
2026-04-27 14:10 43.93780 11.90048 4998 ft 123 kts 29°
2026-04-27 14:10 43.94573 11.90450 4991 ft 123 kts
2026-04-27 14:10 43.95397 11.90219 4934 ft 122 kts 341°
2026-04-27 14:11 43.96187 11.89874 4847 ft 112 kts 341°
2026-04-27 14:11 43.96901 11.89551 4751 ft 105 kts 340°
2026-04-27 14:11 43.97564 11.89257 4663 ft 98 kts 341°
2026-04-27 14:11 43.98234 11.88960 4599 ft 108 kts 339°
2026-04-27 14:12 43.98978 11.88626 4542 ft 116 kts 340°
2026-04-27 14:12 43.99760 11.88281 4474 ft 120 kts 342°
2026-04-27 14:12 44.00568 11.87922 4401 ft 123 kts 342°
2026-04-27 14:12 44.01385 11.87563 4326 ft 124 kts 341°
2026-04-27 14:13 44.02198 11.87204 4256 ft 126 kts 341°
2026-04-27 14:13 44.03046 11.86827 4182 ft 127 kts 341°
2026-04-27 14:13 44.03890 11.86454 4107 ft 128 kts 341°
2026-04-27 14:13 44.04751 11.86073 4028 ft 130 kts 342°
2026-04-27 14:14 44.05602 11.85696 3986 ft 125 kts 341°
2026-04-27 14:14 44.06425 11.85330 3986 ft 124 kts 342°
2026-04-27 14:14 44.07245 11.84964 3980 ft 122 kts 342°
2026-04-27 14:14 44.08035 11.84615 3973 ft 120 kts 341°
2026-04-27 14:15 44.08830 11.84261 3972 ft 119 kts 342°
2026-04-27 14:15 44.09617 11.83911 3970 ft 118 kts 342°
2026-04-27 14:15 44.10389 11.83567 3971 ft 116 kts 341°
2026-04-27 14:15 44.11156 11.83226 3971 ft 116 kts 342°
2026-04-27 14:16 44.11924 11.82885 3972 ft 116 kts 341°
2026-04-27 14:16 44.12692 11.82546 3976 ft 117 kts 342°
2026-04-27 14:16 44.13471 11.82196 3972 ft 117 kts 342°
2026-04-27 14:16 44.14251 11.81850 3979 ft 119 kts 342°
2026-04-27 14:17 44.15053 11.81495 3972 ft 122 kts 342°
2026-04-27 14:17 44.15850 11.81139 3980 ft 121 kts 341°
2026-04-27 14:17 44.16655 11.80782 3975 ft 120 kts 342°
2026-04-27 14:17 44.17448 11.80427 3976 ft 119 kts 342°
2026-04-27 14:18 44.18235 11.80077 3967 ft 118 kts 341°
2026-04-27 14:18 44.19013 11.79730 3968 ft 118 kts 342°
2026-04-27 14:18 44.19792 11.79383 3972 ft 118 kts 342°
2026-04-27 14:18 44.20575 11.79034 3976 ft 118 kts 342°
2026-04-27 14:19 44.21366 11.78681 3978 ft 120 kts 342°
2026-04-27 14:19 44.22158 11.78330 3977 ft 120 kts 341°
2026-04-27 14:19 44.22952 11.77975 3979 ft 120 kts 342°
2026-04-27 14:19 44.23741 11.77620 3979 ft 119 kts 342°
2026-04-27 14:20 44.24534 11.77268 3979 ft 120 kts 342°
2026-04-27 14:20 44.25327 11.76915 3976 ft 119 kts 342°
2026-04-27 14:20 44.26111 11.76563 3979 ft 119 kts 342°
2026-04-27 14:20 44.26897 11.76213 3977 ft 118 kts 342°
2026-04-27 14:21 44.27679 11.75861 3974 ft 118 kts 342°
2026-04-27 14:21 44.28466 11.75511 3978 ft 119 kts 341°
2026-04-27 14:21 44.29278 11.75147 3862 ft 127 kts 342°
2026-04-27 14:21 44.30131 11.74767 3755 ft 130 kts 342°
2026-04-27 14:22 44.30998 11.74381 3604 ft 131 kts 343°
2026-04-27 14:22 44.31843 11.74006 3447 ft 118 kts 343°
2026-04-27 14:22 44.32568 11.73683 3259 ft 103 kts 343°
2026-04-27 14:22 44.33222 11.73389 3090 ft 95 kts 343°
2026-04-27 14:23 44.33835 11.73114 2921 ft 90 kts 343°
2026-04-27 14:23 44.34417 11.72850 2766 ft 86 kts 343°
2026-04-27 14:23 44.34893 11.72376 2617 ft 92 kts 300°
2026-04-27 14:23 44.35105 11.71466 2557 ft 106 kts 288°
2026-04-27 14:24 44.35321 11.70409 2373 ft 120 kts 285°
2026-04-27 14:24 44.35414 11.69256 2201 ft 114 kts 266°
2026-04-27 14:24 44.35171 11.68213 1994 ft 114 kts 237°
2026-04-27 14:24 44.34606 11.67576 1856 ft 108 kts 194°
2026-04-27 14:25 44.33911 11.67712 1955 ft 82 kts 142°
2026-04-27 14:25 44.33562 11.68339 1917 ft 86 kts 118°
2026-04-27 14:25 44.33327 11.69222 1558 ft 111 kts 109°
2026-04-27 14:25 44.33092 11.70222 1415 ft 105 kts 106°
2026-04-27 14:26 44.32936 11.71214 1328 ft 100 kts 93°
2026-04-27 14:26 44.33098 11.72095 1276 ft 96 kts 57°
2026-04-27 14:26 44.33545 11.72837 1113 ft 103 kts 43°
2026-04-27 14:26 44.34158 11.73155 1155 ft 91 kts 356°
2026-04-27 14:27 44.34757 11.72809 1114 ft 92 kts 321°
2026-04-27 14:27 44.35166 11.72139 1087 ft 94 kts 309°
2026-04-27 14:27 44.35574 11.71313 914 ft 114 kts 304°
2026-04-27 14:27 44.35759 11.70315 1047 ft 106 kts 274°
2026-04-27 14:28 44.35788 11.69323 1170 ft 101 kts 272°
2026-04-27 14:28 44.35769 11.68327 1236 ft 103 kts 269°
2026-04-27 14:28 44.35909 11.67350 1309 ft 103 kts 290°
2026-04-27 14:28 44.36118 11.66393 1383 ft 103 kts 287°
2026-04-27 14:29 44.36324 11.65433 1440 ft 103 kts 287°
2026-04-27 14:29 44.36526 11.64466 1508 ft 104 kts 287°
2026-04-27 14:29 44.36729 11.63480 1591 ft 106 kts 287°
2026-04-27 14:29 44.36933 11.62486 1680 ft 107 kts 287°
2026-04-27 14:30 44.37136 11.61487 1776 ft 107 kts 287°
2026-04-27 14:30 44.37341 11.60483 1866 ft 108 kts 287°
2026-04-27 14:30 44.37545 11.59477 1971 ft 109 kts 287°
2026-04-27 14:30 44.37760 11.58413 1988 ft 116 kts 288°
2026-04-27 14:31 44.37986 11.57309 1990 ft 121 kts 287°
2026-04-27 14:31 44.38217 11.56175 1970 ft 122 kts 287°
2026-04-27 14:31 44.38446 11.55043 1972 ft 121 kts 287°
2026-04-27 14:31 44.38673 11.53917 1970 ft 120 kts 287°
2026-04-27 14:32 44.38901 11.52789 1963 ft 119 kts 287°
2026-04-27 14:32 44.39122 11.51705 1943 ft 107 kts 288°
2026-04-27 14:32 44.39330 11.50769 1752 ft 99 kts 290°
2026-04-27 14:32 44.39551 11.49886 1545 ft 96 kts 300°
2026-04-27 14:33 44.39992 11.49340 1415 ft 82 kts 345°
2026-04-27 14:33 44.40600 11.49354 1282 ft 91 kts
2026-04-27 14:33 44.41257 11.49466 1140 ft 95 kts 14°
2026-04-27 14:33 44.41824 11.49765 1076 ft 79 kts 29°
2026-04-27 14:34 44.42338 11.50142 932 ft 80 kts 28°
2026-04-27 14:34 44.42867 11.50420 823 ft 80 kts 27°
2026-04-27 14:34 44.43189 11.50653 764 ft 79 kts 38°
2026-04-27 14:34 44.43591 11.51098 738 ft 72 kts 43°
2026-04-27 14:35 44.43988 11.51504 667 ft 72 kts 39°
2026-04-27 14:35 44.44437 11.51867 621 ft 75 kts 36°
2026-04-27 14:35 44.44898 11.52242 591 ft 74 kts 33°
2026-04-27 14:35 44.45336 11.52612 535 ft 74 kts 32°
2026-04-27 14:36 44.45811 11.52965 425 ft 79 kts 34°
2026-04-27 14:36 44.46290 11.53341 292 ft 80 kts 34°
2026-04-27 14:36 44.46746 11.53702 172 ft 70 kts 34°
2026-04-27 14:36 44.47154 11.54018 105 ft 62 kts 34°
2026-04-27 14:37 44.47477 11.54270 97 ft 44 kts 26°
2026-04-27 14:37 44.47643 11.54392 94 ft 10 kts 43°
2026-04-27 14:37 44.47603 11.54410 94 ft 11 kts 204°
2026-04-27 14:37 44.47530 11.54357 94 ft 12 kts 210°
2026-04-27 14:38 44.47460 11.54302 96 ft 10 kts 208°
2026-04-27 14:38 44.47402 11.54258 98 ft 9 kts 212°
2026-04-27 14:38 44.47349 11.54216 100 ft 11 kts 209°
2026-04-27 14:38 44.47284 11.54166 100 ft 7 kts 203°
2026-04-27 14:39 44.47257 11.54209 100 ft 5 kts 144°
2026-04-27 14:39 44.47230 11.54206 101 ft 1 kts 267°
2026-04-27 14:39 44.47237 11.54187 100 ft 3 kts 301°
2026-04-27 14:39 44.47241 11.54177 100 ft 0 kts 300°
2026-04-27 14:43 44.47241 11.54178 101 ft 0 kts 300°